When you browse on this site, cookies collect data to enhance your experience and personalize the content and advertising you see.
Visit our Privacy Policy to learn more. By continuing to use the site, you agree to this use of cookies and data.
  • In Deutschland
  • Länderverzeichnis
  • Für 7 Tage
  • Wassertemperatur
  • Wetterkarte
  • Widgets
  • user-avatar
    Anmelden

    Stündliche Wetter Gjirokaster

    Heute, 15 November, Freitag

    Zeit Temperatur Niederschläge Wind Luftdruck Luftfeuchtigkeit
    00:00 +6°C° 0.1 mm 2 m/S 648 mmHg 85%
    01:00 +6°C° 0 mm 2 m/S 648 mmHg 87%
    02:00 +6°C° 0 mm 2 m/S 648 mmHg 87%
    03:00 +4°C° 0 mm 3 m/S 648 mmHg 86%
    04:00 +4°C° 0 mm 3 m/S 648 mmHg 86%
    05:00 +5°C° 0 mm 3 m/S 649 mmHg 84%
    06:00 +5°C° 0 mm 3 m/S 649 mmHg 83%
    07:00 +5°C° 0 mm 3 m/S 650 mmHg 82%
    08:00 +7°C° 0 mm 3 m/S 650 mmHg 79%
    09:00 +7°C° 0 mm 4 m/S 651 mmHg 77%
    10:00 +10°C° 0 mm 4 m/S 651 mmHg 74%
    11:00 +10°C° 0.1 mm 4 m/S 651 mmHg 75%
    12:00 +10°C° 0.1 mm 4 m/S 651 mmHg 76%
    13:00 +10°C° 0.1 mm 4 m/S 652 mmHg 77%
    14:00 +10°C° 0.1 mm 4 m/S 652 mmHg 80%
    15:00 +8°C° 0.1 mm 4 m/S 652 mmHg 83%
    16:00 +9°C° 0.1 mm 3 m/S 652 mmHg 86%
    17:00 +8°C° 0 mm 3 m/S 652 mmHg 87%
    18:00 +8°C° 0 mm 3 m/S 652 mmHg 89%
    19:00 +7°C° 0 mm 3 m/S 652 mmHg 90%
    20:00 +7°C° 0 mm 3 m/S 652 mmHg 89%
    21:00 +7°C° 0 mm 3 m/S 652 mmHg 89%
    22:00 +7°C° 0 mm 3 m/S 653 mmHg 88%
    23:00 +7°C° 0 mm 3 m/S 653 mmHg 87%

    Morgen, 16 November, Samstag

    Zeit Temperatur Niederschläge Wind Luftdruck Luftfeuchtigkeit
    00:00 +7°C° 0 mm 3 m/S 653 mmHg 87%
    01:00 +7°C° 0 mm 3 m/S 653 mmHg 86%
    02:00 +7°C° 0 mm 3 m/S 653 mmHg 86%
    03:00 +7°C° 0 mm 3 m/S 653 mmHg 87%
    04:00 +7°C° 0 mm 3 m/S 653 mmHg 87%
    05:00 +7°C° 0 mm 2 m/S 653 mmHg 87%
    06:00 +6°C° 0 mm 2 m/S 653 mmHg 87%
    07:00 +6°C° 0 mm 2 m/S 653 mmHg 87%
    08:00 +8°C° 0 mm 2 m/S 653 mmHg 82%
    09:00 +9°C° 0 mm 3 m/S 654 mmHg 78%
    10:00 +10°C° 0 mm 3 m/S 654 mmHg 73%
    11:00 +10°C° 0 mm 3 m/S 654 mmHg 71%
    12:00 +11°C° 0 mm 3 m/S 654 mmHg 68%
    13:00 +11°C° 0 mm 3 m/S 654 mmHg 65%
    14:00 +10°C° 0 mm 3 m/S 653 mmHg 70%
    15:00 +10°C° 0 mm 3 m/S 653 mmHg 75%
    16:00 +9°C° 0 mm 2 m/S 652 mmHg 80%
    17:00 +8°C° 0 mm 2 m/S 652 mmHg 81%
    18:00 +8°C° 0 mm 2 m/S 652 mmHg 83%
    19:00 +7°C° 0 mm 2 m/S 652 mmHg 84%
    20:00 +7°C° 0 mm 2 m/S 652 mmHg 82%
    21:00 +7°C° 0 mm 2 m/S 652 mmHg 80%
    22:00 +7°C° 0 mm 3 m/S 652 mmHg 78%
    23:00 +7°C° 0 mm 2 m/S 652 mmHg 78%

    übermorgen, 17 November, Sonntag

    Zeit Temperatur Niederschläge Wind Luftdruck Luftfeuchtigkeit
    00:00 +7°C° 0 mm 2 m/S 651 mmHg 77%
    01:00 +7°C° 0 mm 2 m/S 651 mmHg 77%
    02:00 +7°C° 0 mm 2 m/S 651 mmHg 76%
    03:00 +6°C° 0 mm 2 m/S 651 mmHg 76%
    04:00 +6°C° 0 mm 2 m/S 650 mmHg 75%
    05:00 +5°C° 0 mm 3 m/S 650 mmHg 74%
    06:00 +5°C° 0 mm 3 m/S 650 mmHg 74%
    07:00 +5°C° 0 mm 3 m/S 650 mmHg 73%
    08:00 +8°C° 0 mm 3 m/S 651 mmHg 69%
    09:00 +9°C° 0 mm 3 m/S 651 mmHg 65%
    10:00 +10°C° 0 mm 3 m/S 652 mmHg 61%
    11:00 +11°C° 0 mm 4 m/S 651 mmHg 59%
    12:00 +12°C° 0 mm 4 m/S 651 mmHg 57%
    13:00 +12°C° 0 mm 5 m/S 651 mmHg 55%
    14:00 +10°C° 0 mm 5 m/S 651 mmHg 60%
    15:00 +10°C° 0 mm 4 m/S 650 mmHg 65%
    16:00 +8°C° 0 mm 4 m/S 650 mmHg 71%
    17:00 +8°C° 0.2 mm 4 m/S 650 mmHg 71%
    18:00 +8°C° 0.2 mm 4 m/S 650 mmHg 72%
    19:00 +7°C° 0.2 mm 4 m/S 650 mmHg 73%
    20:00 +7°C° 0.7 mm 4 m/S 650 mmHg 75%
    21:00 +7°C° 0.7 mm 5 m/S 650 mmHg 77%
    22:00 +7°C° 0.7 mm 5 m/S 650 mmHg 78%
    23:00 +7°C° 2.8 mm 4 m/S 650 mmHg 83%

    18 November, Montag

    Zeit Temperatur Niederschläge Wind Luftdruck Luftfeuchtigkeit
    00:00 +7°C° 2.8 mm 3 m/S 650 mmHg 88%
    01:00 +7°C° 2.8 mm 2 m/S 650 mmHg 92%
    02:00 +8°C° 1.1 mm 1 m/S 650 mmHg 92%
    03:00 +7°C° 1.1 mm 1 m/S 650 mmHg 92%
    04:00 +6°C° 1.1 mm 0 m/S 651 mmHg 91%
    05:00 +6°C° 0 mm 0 m/S 651 mmHg 91%
    06:00 +7°C° 0 mm 1 m/S 651 mmHg 91%
    07:00 +7°C° 0 mm 1 m/S 651 mmHg 91%
    08:00 +8°C° 0 mm 1 m/S 652 mmHg 85%
    09:00 +9°C° 0 mm 1 m/S 652 mmHg 78%
    10:00 +9°C° 0 mm 2 m/S 653 mmHg 72%
    11:00 +10°C° 0 mm 2 m/S 653 mmHg 69%
    12:00 +10°C° 0 mm 2 m/S 653 mmHg 66%
    13:00 +12°C° 0 mm 2 m/S 653 mmHg 62%
    14:00 +11°C° 0 mm 1 m/S 653 mmHg 67%
    15:00 +10°C° 0 mm 1 m/S 653 mmHg 73%
    16:00 +9°C° 0 mm 1 m/S 652 mmHg 78%
    17:00 +9°C° 0 mm 1 m/S 653 mmHg 79%
    18:00 +8°C° 0 mm 1 m/S 653 mmHg 80%
    19:00 +7°C° 0 mm 1 m/S 653 mmHg 82%
    20:00 +7°C° 0 mm 1 m/S 653 mmHg 82%
    21:00 +6°C° 0 mm 2 m/S 653 mmHg 83%
    22:00 +6°C° 0 mm 2 m/S 653 mmHg 84%
    23:00 +6°C° 0 mm 2 m/S 652 mmHg 84%

    19 November, Dienstag

    Zeit Temperatur Niederschläge Wind Luftdruck Luftfeuchtigkeit
    00:00 +7°C° 0 mm 1 m/S 652 mmHg 85%
    01:00 +7°C° 0 mm 1 m/S 652 mmHg 86%
    02:00 +7°C° 0.1 mm 1 m/S 652 mmHg 86%
    03:00 +7°C° 0.1 mm 1 m/S 652 mmHg 86%
    04:00 +7°C° 0.1 mm 1 m/S 652 mmHg 86%
    05:00 +6°C° 0.4 mm 2 m/S 652 mmHg 87%
    06:00 +6°C° 0.4 mm 2 m/S 652 mmHg 88%
    07:00 +6°C° 0.4 mm 2 m/S 652 mmHg 88%
    08:00 +7°C° 0.5 mm 2 m/S 653 mmHg 83%
    09:00 +9°C° 0.5 mm 3 m/S 653 mmHg 78%
    10:00 +10°C° 0.5 mm 3 m/S 654 mmHg 72%
    11:00 +10°C° 0.7 mm 3 m/S 653 mmHg 73%
    12:00 +10°C° 0.7 mm 4 m/S 653 mmHg 74%
    13:00 +10°C° 0.7 mm 4 m/S 653 mmHg 75%
    14:00 +8°C° 0.7 mm 4 m/S 652 mmHg 79%
    15:00 +8°C° 0.7 mm 3 m/S 652 mmHg 83%
    16:00 +8°C° 0.7 mm 3 m/S 651 mmHg 87%
    17:00 +7°C° 0.4 mm 3 m/S 651 mmHg 88%
    18:00 +7°C° 0.4 mm 2 m/S 651 mmHg 89%
    19:00 +7°C° 0.4 mm 2 m/S 651 mmHg 90%
    20:00 +7°C° 0.9 mm 3 m/S 651 mmHg 90%
    21:00 +7°C° 0.9 mm 3 m/S 651 mmHg 89%
    22:00 +5°C° 0.9 mm 3 m/S 651 mmHg 89%
    23:00 +5°C° 0.6 mm 3 m/S 651 mmHg 88%

    20 November, Mittwoch

    Zeit Temperatur Niederschläge Wind Luftdruck Luftfeuchtigkeit
    00:00 +5°C° 0.6 mm 3 m/S 651 mmHg 88%
    01:00 +5°C° 0.6 mm 3 m/S 651 mmHg 87%
    02:00 +5°C° 1 mm 3 m/S 650 mmHg 88%
    03:00 +4°C° 1 mm 3 m/S 650 mmHg 90%
    04:00 +4°C° 1 mm 3 m/S 650 mmHg 92%
    05:00 +4°C° 0.7 mm 3 m/S 650 mmHg 92%
    06:00 +4°C° 0.7 mm 3 m/S 650 mmHg 92%
    07:00 +4°C° 0.7 mm 3 m/S 651 mmHg 92%
    08:00 +6°C° 0.2 mm 2 m/S 651 mmHg 88%
    09:00 +7°C° 0.2 mm 2 m/S 652 mmHg 84%
    10:00 +8°C° 0.2 mm 2 m/S 652 mmHg 80%
    11:00 +8°C° 0.2 mm 2 m/S 652 mmHg 78%
    12:00 +8°C° 0.2 mm 2 m/S 652 mmHg 76%
    13:00 +9°C° 0.2 mm 2 m/S 652 mmHg 74%
    14:00 +8°C° 0.1 mm 2 m/S 652 mmHg 77%
    15:00 +8°C° 0.1 mm 1 m/S 652 mmHg 81%
    16:00 +8°C° 0.1 mm 1 m/S 652 mmHg 84%
    17:00 +7°C° 0.1 mm 1 m/S 652 mmHg 86%
    18:00 +7°C° 0.1 mm 1 m/S 652 mmHg 88%
    19:00 +6°C° 0.1 mm 1 m/S 652 mmHg 90%
    20:00 +6°C° 0.1 mm 1 m/S 652 mmHg 90%
    21:00 +6°C° 0.1 mm 1 m/S 652 mmHg 90%
    22:00 +6°C° 0.1 mm 1 m/S 652 mmHg 90%
    23:00 +6°C° 0.1 mm 1 m/S 652 mmHg 90%
    Mehr zeigen